Voltar ao catálogo

STARLINK-32166

AtivoComunicaçõesVLEO
NORAD 60257·PAYLOAD·🇺🇸 United States

Lançado Jul 27, 2024 de Cape Canaveral Space Force Station

Loading…

Próximas Passagens (próximas 24 horas)

TLE

AtualizadoSource: CelesTrak SupGP

Época: Sep 15, 2026, 03:09 UTC

1 60257C 24131C   26258.13173611 -.00049489  00000+0 -14615-2 0  2589
2 60257  53.1570 251.0269 0001238  99.9784 264.5176 15.34429075    10

Acompanhe STARLINK-32166 em tempo real com AllMySat

Download on the App Store